This is the latest recevied weather packets stored in our database for station/object K1BES. If no packets are shown the sender has not sent any weather packets the latest 10 day(s).
| Time | Temp. | Humidity | Pressure | Rain* | Wind** | Luminosity | Snow |
|---|---|---|---|---|---|---|---|
| 1778088836 | 29.44° C | 76% | 1019 hPa | 0 mm | - | 1066 W/m² | - |
| 1778088534 | 29.44° C | 74% | 1019 hPa | 0 mm | - | 1070 W/m² | - |
| 1778088230 | 30° C | 72% | 1018.9 hPa | 0 mm | - | 1051 W/m² | - |
| 1778087928 | 30° C | 73% | 1019 hPa | 0 mm | - | 1045 W/m² | - |
| 1778087625 | 29.44° C | 75% | 1019 hPa | 0 mm | - | 998 W/m² | - |
| 1778087322 | 29.44° C | 75% | 1019.1 hPa | 0 mm | - | 1030 W/m² | - |
| 1778087018 | 29.44° C | 74% | 1019.1 hPa | 0 mm | - | 969 W/m² | - |
| 1778086718 | 30° C | 72% | 1019.1 hPa | 0 mm | - | 971 W/m² | - |
| 1778086415 | 29.44° C | 72% | 1019.2 hPa | 0 mm | - | 1057 W/m² | - |
| 1778086111 | 30° C | 71% | 1019.1 hPa | 0 mm | - | 994 W/m² | - |
| 1778085808 | 30° C | 71% | 1019.3 hPa | 0 mm | - | 932 W/m² | - |
| 1778085505 | 30° C | 72% | 1019 hPa | 0 mm | - | 1049 W/m² | - |
| 1778085200 | 29.44° C | 74% | 1019.2 hPa | 0 mm | - | 1017 W/m² | - |
| 1778084895 | 30° C | 72% | 1019.2 hPa | 0 mm | - | 940 W/m² | - |
| 1778084594 | 30° C | 71% | 1019.2 hPa | 0 mm | - | 878 W/m² | - |
| 1778084291 | 30° C | 70% | 1019.4 hPa | 0 mm | - | 926 W/m² | - |
| 1778083988 | 29.44° C | 72% | 1019.2 hPa | 0 mm | - | 950 W/m² | - |
| 1778083686 | 29.44° C | 72% | 1019.2 hPa | 0 mm | - | 961 W/m² | - |
| 1778083382 | 30.56° C | 69% | 1019.3 hPa | 0 mm | - | 936 W/m² | - |
| 1778083081 | 30° C | 71% | 1019.3 hPa | 0 mm | - | 929 W/m² | - |
| 1778082777 | 30° C | 69% | 1019.2 hPa | 0 mm | - | 371 W/m² | - |
| 1778081650 | 30° C | 69% | 1019.2 hPa | 0 mm | - | 784 W/m² | - |
| 1778081347 | 30° C | 69% | 1019.1 hPa | 0 mm | - | 903 W/m² | - |
| 1778081044 | 30° C | 69% | 1019.2 hPa | 0 mm | - | 870 W/m² | - |
| 1778080743 | 30° C | 69% | 1019.1 hPa | 0 mm | - | 326 W/m² | - |
* Rain latest hour (hover to see other rain measurements)
** Current wind speed in m/s (hover to see current wind gust speed)